Location: Newark
(48.3453°N, 0.5589°E)
Time: 22:33:03
(UTC+00:00)

A-11 Canister half - Pass Details

Date: 15 December 2019
Orbit: 1517 x 1683 km, 47.2° (Epoch: 24 January)

Event Time Altitude Azimuth Distance (km) Brightness Sun altitude
Rises 08:09:56 0° 172° (S) 4,682 12.4 2.8°
Reaches altitude 10° 08:15:15 10° 147° (SSE) 3,735 12.9 3.5°
Maximum altitude 08:19:04 13° 123° (ESE) 3,518 13.0 4.0°
Drops below altitude 10° 08:22:55 10° 98° (E) 3,795 12.1 4.4°
Sets 08:28:22 0° 74° (ENE) 4,825 12.1 5.1°
